| time (UTC) | temp C | wind direction | speed KPH | gust KPH | rain 1hr cm | rain 24hr cm | rain mn cm | humidity % | barometer mb |
| 20260504150633 | 20 | 314 | 3.2 | 6.4 | 0.00 | 0.00 | 0.00 | 44 | 1010.6 |
| 20260504140639 | 17 | 348 | 1.6 | 3.2 | 0.00 | 0.00 | 0.00 | 52 | 1010.3 |
| 20260504130623 | 15 | 264 | 0.0 | 1.6 | 0.00 | 0.00 | 0.00 | 51 | 1009.7 |
| 20260504110639 | 16 | 226 | 3.2 | 4.8 | 0.00 | 0.00 | 0.00 | 50 | 1009.6 |
| 20260504081634 | 20 | 301 | 8.0 | 9.7 | 0.00 | 0.00 | 0.00 | 33 | 1009.6 |
| 20260504080636 | 22 | 291 | 6.4 | 9.7 | 0.00 | 0.00 | 0.00 | 31 | 1009.7 |
| 20260504050632 | 23 | 249 | 0.0 | 1.6 | 0.00 | 0.00 | 0.00 | 28 | 1010.1 |
| 20260504045651 | 23 | 204 | 3.2 | 3.2 | 0.00 | 0.00 | 0.00 | 28 | 1010.3 |
| 20260504044626 | 23 | 228 | 3.2 | 4.8 | 0.00 | 0.00 | 0.00 | 29 | 1010.1 |
| 20260504043706 | 22 | 211 | 3.2 | 4.8 | 0.00 | 0.00 | 0.00 | 30 | 1010.0 |
| 20260504042622 | 22 | 227 | 3.2 | 4.8 | 0.00 | 0.00 | 0.00 | 32 | 1010.1 |
| 20260504041626 | 21 | 230 | 3.2 | 4.8 | 0.00 | 0.00 | 0.00 | 36 | 1010.0 |
| 20260504040640 | 21 | 220 | 1.6 | 3.2 | 0.00 | 0.00 | 0.00 | 37 | 1009.8 |
| 20260504035639 | 22 | 214 | 1.6 | 3.2 | 0.00 | 0.00 | 0.00 | 38 | 1010.0 |
| 20260504034637 | 23 | 239 | 1.6 | 3.2 | 0.00 | 0.00 | 0.00 | 35 | 1009.8 |
| 20260504033633 | 23 | 222 | 0.0 | 3.2 | 0.00 | 0.00 | 0.00 | 35 | 1009.9 |
| 20260504032632 | 23 | 253 | 1.6 | 3.2 | 0.00 | 0.00 | 0.00 | 34 | 1009.8 |
| 20260504031632 | 25 | 242 | 3.2 | 3.2 | 0.00 | 0.00 | 0.00 | 31 | 1009.9 |
| 20260504030703 | 25 | 0.0 | 0.0 | 0.00 | 0.00 | 0.00 | 26 | 1009.8 | |
| 20260504025622 | 26 | 0.0 | 1.6 | 0.00 | 0.00 | 0.00 | 25 | 1009.8 | |
| 20260504024621 | 26 | 58 | 3.2 | 3.2 | 0.00 | 0.00 | 0.00 | 24 | 1009.8 |
| 20260504023637 | 27 | 109 | 1.6 | 3.2 | 0.00 | 0.00 | 0.00 | 24 | 1009.8 |
| 20260504022633 | 27 | 63 | 4.8 | 6.4 | 0.00 | 0.00 | 0.00 | 23 | 1010.0 |
| 20260504021656 | 27 | 76 | 4.8 | 4.8 | 0.00 | 0.00 | 0.00 | 22 | 1009.9 |
| 20260504020649 | 28 | 68 | 4.8 | 8.0 | 0.00 | 0.00 | 0.00 | 22 | 1009.9 |
| 20260504015630 | 28 | 38 | 4.8 | 9.7 | 0.00 | 0.00 | 0.00 | 22 | 1010.0 |
| 20260504014625 | 28 | 68 | 3.2 | 3.2 | 0.00 | 0.00 | 0.00 | 21 | 1010.1 |
| 20260504013625 | 28 | 111 | 3.2 | 3.2 | 0.00 | 0.00 | 0.00 | 21 | 1010.3 |
| 20260504012620 | 28 | 118 | 4.8 | 8.0 | 0.00 | 0.00 | 0.00 | 21 | 1010.3 |
| 20260504011622 | 28 | 111 | 3.2 | 4.8 | 0.00 | 0.00 | 0.00 | 20 | 1010.6 |
| 20260504010639 | 28 | 59 | 4.8 | 4.8 | 0.00 | 0.00 | 0.00 | 21 | 1010.7 |
| 20260504005638 | 28 | 38 | 4.8 | 8.0 | 0.00 | 0.00 | 0.00 | 21 | 1010.8 |
| 20260504004632 | 28 | 54 | 9.7 | 14.5 | 0.00 | 0.00 | 0.00 | 21 | 1010.8 |
| 20260504003649 | 28 | 90 | 8.0 | 8.0 | 0.00 | 0.00 | 0.00 | 20 | 1011.2 |
| 20260504002627 | 28 | 71 | 9.7 | 16.1 | 0.00 | 0.00 | 0.00 | 20 | 1011.2 |
| 20260504001627 | 28 | 117 | 3.2 | 3.2 | 0.00 | 0.00 | 0.00 | 21 | 1011.3 |
| 20260504000622 | 28 | 22 | 6.4 | 9.7 | 0.00 | 0.00 | 0.00 | 21 | 1011.4 |
| 20260503235623 | 28 | 46 | 11.3 | 16.1 | 0.00 | 0.00 | 0.00 | 19 | 1011.3 |
| 20260503234623 | 29 | 51 | 12.9 | 17.7 | 0.00 | 0.00 | 0.00 | 20 | 1011.5 |
| 20260503233637 | 28 | 2 | 6.4 | 9.7 | 0.00 | 0.00 | 0.00 | 21 | 1011.6 |
| 20260503232633 | 28 | 49 | 9.7 | 16.1 | 0.00 | 0.00 | 0.00 | 21 | 1011.8 |
| 20260503231714 | 28 | 15 | 8.0 | 11.3 | 0.00 | 0.00 | 0.00 | 21 | 1012.0 |
| 20260503230632 | 28 | 1 | 3.2 | 4.8 | 0.00 | 0.00 | 0.00 | 21 | 1012.0 |
| 20260503225630 | 28 | 23 | 9.7 | 14.5 | 0.00 | 0.00 | 0.00 | 23 | 1012.2 |
| 20260503224625 | 29 | 66 | 11.3 | 16.1 | 0.00 | 0.00 | 0.00 | 22 | 1012.3 |
| 20260503223625 | 28 | 7 | 8.0 | 14.5 | 0.00 | 0.00 | 0.00 | 23 | 1012.5 |
| 20260503222641 | 27 | 98 | 3.2 | 6.4 | 0.00 | 0.00 | 0.00 | 24 | 1012.7 |
| 20260503221641 | 29 | 43 | 11.3 | 16.1 | 0.00 | 0.00 | 0.00 | 22 | 1012.6 |
| 20260503220636 | 28 | 81 | 6.4 | 8.0 | 0.00 | 0.00 | 0.00 | 22 | 1012.9 |
| 20260503215654 | 28 | 19 | 11.3 | 17.7 | 0.00 | 0.00 | 0.00 | 23 | 1012.9 |
| 20260503214634 | 28 | 110 | 6.4 | 9.7 | 0.00 | 0.00 | 0.00 | 20 | 1013.2 |
| 20260503213630 | 28 | 87 | 4.8 | 6.4 | 0.00 | 0.00 | 0.00 | 21 | 1013.4 |
| 20260503212630 | 28 | 42 | 8.0 | 11.3 | 0.00 | 0.00 | 0.00 | 21 | 1013.5 |
| 20260503211628 | 28 | 15 | 1.6 | 6.4 | 0.00 | 0.00 | 0.00 | 23 | 1013.6 |
| 20260503210643 | 28 | 23 | 8.0 | 14.5 | 0.00 | 0.00 | 0.00 | 22 | 1013.7 |
| 20260503205623 | 27 | 15 | 12.9 | 17.7 | 0.00 | 0.00 | 0.00 | 24 | 1013.8 |
| 20260503204621 | 27 | 124 | 6.4 | 6.4 | 0.00 | 0.00 | 0.00 | 25 | 1014.0 |
| 20260503203641 | 27 | 33 | 3.2 | 8.0 | 0.00 | 0.00 | 0.00 | 26 | 1014.0 |
| 20260503202654 | 26 | 259 | 4.8 | 6.4 | 0.00 | 0.00 | 0.00 | 28 | 1013.9 |
| 20260503201631 | 26 | 359 | 1.6 | 3.2 | 0.00 | 0.00 | 0.00 | 28 | 1014.1 |
| 20260503200635 | 27 | 56 | 4.8 | 9.7 | 0.00 | 0.00 | 0.00 | 26 | 1014.2 |
| 20260503195632 | 25 | 259 | 0.0 | 3.2 | 0.00 | 0.00 | 0.00 | 30 | 1014.4 |
| 20260503194625 | 26 | 77 | 4.8 | 9.7 | 0.00 | 0.00 | 0.00 | 28 | 1014.5 |
| 20260503193626 | 26 | 13 | 4.8 | 8.0 | 0.00 | 0.00 | 0.00 | 30 | 1014.9 |
| 20260503192623 | 26 | 87 | 4.8 | 6.4 | 0.00 | 0.00 | 0.00 | 29 | 1014.9 |
| 20260503191640 | 26 | 230 | 1.6 | 6.4 | 0.00 | 0.00 | 0.00 | 32 | 1015.0 |
| 20260503190636 | 25 | 52 | 4.8 | 6.4 | 0.00 | 0.00 | 0.00 | 30 | 1015.0 |
| 20260503185654 | 25 | 49 | 4.8 | 11.3 | 0.00 | 0.00 | 0.00 | 33 | 1015.1 |
| 20260503184635 | 25 | 22 | 11.3 | 14.5 | 0.00 | 0.00 | 0.00 | 31 | 1015.2 |
| 20260503183649 | 25 | 61 | 6.4 | 9.7 | 0.00 | 0.00 | 0.00 | 32 | 1015.3 |
| 20260503182628 | 23 | 357 | 6.4 | 9.7 | 0.00 | 0.00 | 0.00 | 32 | 1015.4 |
| 20260503181624 | 23 | 23 | 8.0 | 9.7 | 0.00 | 0.00 | 0.00 | 34 | 1015.5 |
| 20260503180625 | 23 | 55 | 8.0 | 12.9 | 0.00 | 0.00 | 0.00 | 33 | 1015.6 |
| 20260503175640 | 23 | 66 | 4.8 | 4.8 | 0.00 | 0.00 | 0.00 | 35 | 1015.7 |
| 20260503174619 | 23 | 12 | 8.0 | 11.3 | 0.00 | 0.00 | 0.00 | 34 | 1015.7 |
| 20260503173659 | 22 | 28 | 9.7 | 14.5 | 0.00 | 0.00 | 0.00 | 37 | 1016.0 |
| 20260503172633 | 22 | 27 | 11.3 | 14.5 | 0.00 | 0.00 | 0.00 | 37 | 1016.0 |
| 20260503171655 | 21 | 12 | 9.7 | 14.5 | 0.00 | 0.00 | 0.00 | 40 | 1016.0 |
| 20260503170631 | 21 | 21 | 14.5 | 17.7 | 0.00 | 0.00 | 0.00 | 39 | 1015.9 |